User: anonymous   Login
Location: Rio Negrinho
(26.2394°S, 49.4999°W)
Time: 04:59:35
(UTC+00:00)
Language:

Cosmos 2123 Rocket - Orbit

View from above orbital plane
View from above orbital plane
View from above satellite
View from above satellite

Ground track
Ground track

The orbit data is extracted from the following two-line orbital elements,

1 21090U 91007B   21208.52878294 -.00000050  00000-0 -66370-4 0  9990
2 21090  82.9206 200.5128 0021231 154.2691 205.9527 13.76404442530245
Epoch (UTC): 27 July 2021 12:41:26
Eccentricity: 0.0021231
inclination: 82.9206°
perigee height: 961 km
apogee height: 992 km
right ascension of ascending node: 200.5128°
argument of perigee: 154.2691°
revolutions per day: 13.76404442
mean anomaly at epoch: 205.9527°
orbit number at epoch: 53024

The dashed part of the orbit path shows where the satellite is in the earth's shadow,  

DLR